Location: Sungai Igah
(2.7333°N, 114.2500°E)
Time: 10:49:31
(UTC+00:00)

Meteor 1-31 Rocket - Pass Details

Date: 14 June 2021
Orbit: 519 x 546 km, 97.7° (Epoch: 04 August)

Event Time Altitude Azimuth Distance (km) Brightness Sun altitude
Rises 20:33:30 0° 28° (NNE) 2,657 7.2 -23.9°
Reaches altitude 10° 20:35:47 10° 39° (NE) 1,765 6.3 -23.4°
Maximum altitude 20:39:09 30° 101° (E) 955 4.5 -22.6°
Enters shadow 20:41:56 13° 159° (SSE) 1,554 5.0 -22.0°
